Location: Drocourt
(49.0571°N, 1.7669°E)
Time: 14:52:57
(UTC+00:00)

SR - Pass Details

Date: 14 April 2024
Orbit: 579 x 859 km, 66.7° (Epoch: 28 May)

Event Time Altitude Azimuth Distance (km) Brightness Sun altitude
Rises 06:45:14 0° 295° (WNW) 3,238 ? 15.8°
Reaches altitude 10° 06:49:45 10° 330° (NNW) 2,230 ? 16.5°
Maximum altitude 06:51:10 11° 347° (NNW) 2,132 ? 16.7°
Drops below altitude 10° 06:52:34 10° 3° (N) 2,178 ? 17.0°
Sets 06:56:47 0° 40° (NE) 3,013 ? 17.7°
